sat.trackr.live / text

‹ back to catalog

ONEWEB-0685

NORAD 54679 · 2022-166AP

PAYLOAD ACTIVE UNKNOWN

§ Identity

Operator
Country
UK
Launch date
2022-12-08
Launch site
AFETR
Launch vehicle
Mass (kg)
RCS (m²)

Purposes: comms

External: N2YO · Heavens-Above · Gunter

§ Orbital elements

Epoch: 2026-05-25T00:07:40.981152Z

Period
108.94 min
Inclination
87.9249°
Eccentricity
0.0002121
Mean motion
13.21819482 rev/d
Perigee alt
1,176.2 km
Apogee alt
1,179.4 km
Semi-major
7,555.9 km
B*
3.8550e-5
RAAN
248.5939°
Arg perigee
93.0308°
Mean anomaly
267.1069°
Rev number
16,835

§ Raw data

ONEWEB-06851 54679U 22166AP  26145.00533543  .00000029  00000+0  38550-4 0  99942 54679  87.9249 248.5939 0002121  93.0308 267.1069 13.21819482168354

JSON: /api/v1/satellites/54679 · /tle

For live sub-satellite position, see the globe view (requires WebGL).

§ Visibility from observer

Set your observer location to see the next 7 days of passes ≥ 10°. The values pass through the URL so the page stays shareable.

No JS? Fill the form by hand. The geolocation button needs JavaScript.